Total_Precipitation_Accumulation
0.01 0.01 0.01 0.00 0.00 0.00 0.00 0.01 0.01 0.00 0.00 0.00 0.00 0.00 0.00 0.00 0.00 0.00 0.00 0.00 0.00 0.00 0.00 0.00 0.00 0.00 0.00 0.00 0.00 0.00 0.00 0.00 0.01 0.02 0.05 0.17 0.40 0.32 0.13 0.09 0.16 0.27 0.46 0.62 0.50
0.01 0.02 0.02 0.00 0.00 0.00 0.01 0.01 0.01 0.00 0.00 0.00 0.00 0.00 0.00 0.00 0.00 0.00 0.00 0.00 0.00 0.00 0.00 0.00 0.00 0.00 0.00 0.00 0.00 0.00 0.00 0.00 0.00 0.05 0.22 0.30 0.46 0.19 0.16 0.38 0.38 0.96 0.58 0.91 0.64
0.04 0.03 0.01 0.00 0.00 0.01 0.01 0.01 0.01 0.00 0.00 0.00 0.00 0.00 0.00 0.00 0.00 0.00 0.00 0.00 0.00 0.00 0.00 0.00 0.00 0.00 0.00 0.00 0.00 0.00 0.00 0.00 0.01 0.04 0.10 0.07 0.07 0.02 0.03 0.05 0.31 0.50 0.44 0.52 0.61
0.03 0.01 0.00 0.00 0.01 0.02 0.01 0.01 0.00 0.00 0.00 0.00 0.00 0.00 0.00 0.00 0.00 0.00 0.00 0.00 0.00 0.00 0.00 0.00 0.00 0.00 0.00 0.00 0.00 0.00 0.00 0.00 0.00 0.03 0.04 0.00 0.05 0.02 0.02 0.05 0.08 0.15 0.28 0.46 0.59
0.02 0.02 0.03 0.04 0.03 0.01 0.01 0.00 0.00 0.00 0.00 0.00 0.00 0.00 0.00 0.00 0.00 0.00 0.00 0.00 0.00 0.00 0.00 0.00 0.00 0.00 0.00 0.00 0.00 0.00 0.00 0.00 0.03 0.01 0.00 0.00 0.00 0.07 0.06 0.09 0.27 0.17 0.60 0.69 0.64
0.11 0.08 0.07 0.04 0.02 0.01 0.01 0.01 0.00 0.00 0.00 0.00 0.00 0.00 0.00 0.00 0.00 0.00 0.00 0.00 0.00 0.00 0.00 0.00 0.00 0.00 0.00 0.00 0.00 0.00 0.00 0.00 0.00 0.00 0.00 0.01 0.00 0.01 0.18 0.30 0.68 0.58 0.86 0.95 0.61
0.25 0.13 0.06 0.03 0.03 0.03 0.02 0.03 0.02 0.00 0.00 0.00 0.00 0.00 0.00 0.00 0.00 0.00 0.00 0.00 0.00 0.00 0.00 0.00 0.00 0.00 0.00 0.00 0.00 0.00 0.00 0.00 0.00 0.00 0.00 0.02 0.08 0.16 0.07 0.06 0.19 0.41 0.35 0.41 0.30
0.63 0.35 0.18 0.09 0.06 0.05 0.05 0.04 0.03 0.01 0.00 0.00 0.00 0.00 0.00 0.00 0.00 0.00 0.00 0.00 0.00 0.00 0.00 0.00 0.00 0.00 0.00 0.00 0.00 0.00 0.00 0.01 0.09 0.00 0.00 0.00 0.13 0.28 0.06 0.08 0.09 0.10 0.09 0.19 0.29
0.94 0.71 0.44 0.26 0.17 0.11 0.09 0.08 0.08 0.04 0.00 0.00 0.00 0.00 0.00 0.00 0.00 0.00 0.00 0.00 0.00 0.00 0.00 0.00 0.00 0.00 0.00 0.00 0.00 0.00 0.00 0.00 0.00 0.00 0.00 0.00 0.01 0.07 0.06 0.04 0.06 0.04 0.01 0.05 0.35
0.80 0.65 0.46 0.33 0.23 0.21 0.24 0.23 0.20 0.10 0.00 0.00 0.01 0.00 0.00 0.00 0.00 0.00 0.00 0.00 0.00 0.00 0.00 0.00 0.00 0.00 0.00 0.00 0.00 0.00 0.00 0.00 0.00 0.00 0.00 0.00 0.00 0.03 0.04 0.02 0.01 0.01 0.00 0.01 0.02
1.24 0.80 0.56 0.43 0.38 0.46 0.51 0.54 0.37 0.17 0.04 0.00 0.00 0.00 0.00 0.00 0.00 0.00 0.00 0.00 0.00 0.00 0.00 0.00 0.00 0.00 0.00 0.00 0.00 0.00 0.00 0.00 0.00 0.00 0.00 0.00 0.00 0.02 0.04 0.03 0.13 0.01 0.00 0.00 0.00
1.79 1.53 0.89 0.65 0.72 0.81 0.73 0.57 0.20 0.07 0.04 0.00 0.00 0.00 0.00 0.00 0.00 0.00 0.00 0.00 0.00 0.00 0.00 0.00 0.00 0.00 0.00 0.00 0.00 0.00 0.00 0.00 0.00 0.00 0.00 0.00 0.00 0.01 0.02 0.02 0.05 0.02 0.01 0.00 0.00
2.05 2.01 1.78 1.39 1.21 1.18 0.78 0.36 0.08 0.13 0.15 0.01 0.00 0.00 0.00 0.00 0.00 0.00 0.00 0.00 0.00 0.00 0.00 0.00 0.02 0.00 0.00 0.00 0.00 0.00 0.00 0.00 0.00 0.00 0.00 0.00 0.00 0.00 0.01 0.03 0.02 0.03 0.01 0.00 0.00
1.84 2.26 2.39 2.60 2.45 0.88 0.67 0.21 0.14 0.35 0.58 0.10 0.00 0.00 0.00 0.00 0.00 0.00 0.00 0.00 0.00 0.00 0.00 0.01 0.00 0.00 0.00 0.00 0.00 0.01 0.00 0.00 0.00 0.01 0.02 0.00 0.02 0.02 0.00 0.01 0.01 0.02 0.01 0.01 0.01
1.74 2.04 2.27 2.74 2.13 1.08 0.42 0.22 0.40 0.93 1.54 0.15 0.00 0.00 0.00 0.00 0.00 0.00 0.00 0.00 0.00 0.00 0.01 0.03 0.00 0.00 0.00 0.00 0.00 0.03 0.00 0.00 0.00 0.00 0.02 0.01 0.03 0.01 0.00 0.00 0.00 0.01 0.02 0.00 0.01
2.00 2.10 2.12 2.72 2.31 0.93 0.45 0.55 1.71 2.74 1.98 0.09 0.00 0.00 0.00 0.00 0.00 0.00 0.00 0.00 0.00 0.00 0.00 0.00 0.00 0.00 0.01 0.00 0.00 0.00 0.00 0.00 0.00 0.02 0.07 0.01 0.07 0.02 0.01 0.01 0.02 0.00 0.00 0.00 0.02
2.10 2.24 2.38 1.95 1.91 0.76 1.12 2.97 4.84 3.95 0.66 0.03 0.00 0.00 0.00 0.00 0.00 0.00 0.00 0.00 0.00 0.00 0.00 0.00 0.00 0.00 0.00 0.00 0.01 0.04 0.09 0.26 0.31 0.12 0.09 0.05 0.09 0.05 0.02 0.02 0.05 0.01 0.01 0.00 0.01
2.49 2.66 2.93 2.50 1.73 1.59 3.37 5.52 6.40 1.99 0.28 0.00 0.00 0.00 0.00 0.00 0.00 0.00 0.00 0.00 0.00 0.00 0.00 0.00 0.02 0.00 0.00 0.01 0.02 0.05 0.19 0.66 0.75 0.26 0.26 0.18 0.13 0.11 0.08 0.04 0.03 0.03 0.02 0.02 0.01
3.95 4.55 4.71 3.65 2.96 3.16 5.88 7.22 3.61 0.66 0.12 0.01 0.00 0.00 0.00 0.00 0.00 0.00 0.00 0.02 0.03 0.02 0.05 0.05 0.03 0.01 0.00 0.00 0.03 0.08 0.14 0.16 0.51 0.40 0.46 0.17 0.06 0.10 0.11 0.13 0.09 0.06 0.03 0.04 0.04
5.14 5.90 4.81 3.18 3.82 5.04 7.35 6.10 1.59 0.12 0.01 0.01 0.16 0.04 0.01 0.00 0.03 0.05 0.06 0.09 0.23 0.09 0.03 0.12 0.10 0.02 0.02 0.06 0.09 0.05 0.06 0.19 0.73 0.93 0.42 0.11 0.08 0.20 0.34 0.35 0.30 0.21 0.15 0.14 0.13
5.66 6.83 4.86 3.15 5.68 8.27 8.12 4.16 0.77 0.07 0.02 0.09 0.12 0.10 0.02 0.03 0.06 0.15 0.20 0.08 0.05 0.07 0.03 0.07 0.22 0.09 0.01 0.12 0.24 0.28 0.31 0.39 0.57 0.78 0.83 0.35 0.16 0.22 0.35 0.45 0.42 0.48 0.47 0.34 0.26
6.59 7.53 5.00 4.94 8.71 8.62 4.46 1.38 0.32 0.03 0.04 0.15 0.13 0.11 0.07 0.04 0.04 0.06 0.08 0.08 0.05 0.05 0.04 0.09 0.28 0.17 0.02 0.02 0.07 0.18 0.50 1.09 1.66 1.41 0.91 0.79 0.32 0.16 0.13 0.21 0.43 1.18 1.14 0.69 0.51
7.04 6.68 5.92 6.48 7.97 5.61 1.76 0.41 0.19 0.09 0.16 0.45 0.31 0.16 0.11 0.09 0.22 0.07 0.06 0.01 0.07 0.21 0.30 0.34 0.79 0.72 0.17 0.14 0.22 0.33 0.42 0.74 1.20 1.33 0.84 1.19 0.38 0.16 0.20 0.39 0.48 0.94 0.91 0.75 0.55
6.33 6.82 7.47 7.95 5.14 2.38 1.37 0.66 0.42 0.23 0.22 0.45 0.62 0.36 0.35 0.33 0.27 0.23 0.13 0.06 0.04 0.16 0.17 0.46 0.61 0.56 0.43 0.20 0.25 0.28 0.21 0.27 0.75 1.24 0.57 0.47 0.19 0.33 0.35 0.41 0.79 0.62 0.48 0.62 0.60
8.12 5.31 3.76 5.49 4.38 1.95 1.13 0.84 0.52 0.55 0.39 0.39 0.47 0.64 0.90 1.03 0.57 0.44 0.29 0.26 0.12 0.13 0.23 0.49 0.71 0.17 0.09 0.04 0.09 0.16 0.16 0.13 0.33 0.49 0.87 0.32 0.23 0.32 0.33 0.45 0.62 0.39 0.45 0.31 0.67
7.47 3.82 1.96 1.19 1.04 1.12 1.26 1.17 0.65 0.59 0.65 0.61 0.64 0.43 0.57 1.26 1.30 0.93 0.79 0.87 0.64 0.49 0.71 0.91 1.26 0.63 0.45 0.05 0.06 0.15 0.11 0.09 0.06 0.07 0.15 0.17 0.18 0.05 0.05 0.11 0.09 0.10 0.11 0.21 0.37
6.00 2.33 1.67 1.53 1.10 1.09 1.07 0.73 0.61 0.74 0.70 0.44 0.78 1.12 1.02 0.87 0.69 0.71 0.90 0.86 0.77 0.77 1.09 1.32 1.16 1.05 0.90 0.14 0.47 0.84 0.12 0.05 0.16 0.24 0.20 0.22 0.17 0.03 0.07 0.10 0.15 0.13 0.11 0.12 0.12